Flag for U.S.A. Weather past 2 weeks in New Haven, Connecticut, U.S.A.

66 °F


Feels Like: 66 °F
Forecast: 55 / 73 °F
Wind: 8 mph from Southwest

Location: Tweed-New Haven Airport

Current Time: Oct 13, 2015 at 7:40:00 PM

Latest Report: Oct 13, 2015 at 6:53 PM

Visibility: 10 mi

Pressure: 29.53 "Hg

Humidity: 78%

Dew point: 59 °F

Location of New HavenLocation

Historic Weather in New Haven — Graph


New Haven temperature yesterday

Maximum temperature yesterday: 71 °F (at 2:53 PM)
Minimum temperature yesterday: 46 °F (at 6:53 AM)
Average temperature yesterday: 60 °F

Past Weeks' High & Low Weather Summary

High80 °F (Sep 29, 1:53 PM)97% (Sep 29, 12:53 AM)30.39 "Hg (Sep 29, 12:53 AM)
Low39 °F (Oct 11, 6:53 AM)44% (Oct 6, 12:53 PM)29.50 "Hg (Oct 13, 2:53 PM)
Average59 °F77%30.02 "Hg
* Reported Sep 28 5:53 PM — Oct 13 5:53 PM, New Haven, Weather by CustomWeather, © 2015

Note: Actual official high and low records may vary slightly from our data, if they occured in-between our weather recording intervals... More about our weather records


New Haven weather history for previous 24 hours

Time TempWeatherWind HumidityBarometerVisibility
5:53 PM
Tue, Oct 13
67 °FScattered clouds.7 mph79%29.51 "Hg10 mi
4:53 PM69 °FPartly sunny.8 mph76%29.50 "Hg10 mi
3:53 PM69 °FMore clouds than sun.8 mph81%29.51 "Hg10 mi
2:53 PM69 °FPartly sunny.9 mph79%29.50 "Hg10 mi
1:53 PM70 °FScattered clouds.9 mph79%29.53 "Hg10 mi
12:53 PM71 °FBroken clouds.10 mph76%29.54 "Hg10 mi
12:03 PM68 °FPartly sunny.7 mph82%29.57 "Hg10 mi
11:53 AM68 °FScattered clouds.6 mph82%29.57 "Hg10 mi
10:53 AM67 °FPartly sunny.8 mph81%29.57 "Hg10 mi
9:53 AM65 °FBroken clouds.5 mph87%29.58 "Hg10 mi
8:53 AM62 °FFog.No wind96%29.59 "Hg6 mi
7:53 AM59 °FFog.No wind96%29.61 "Hg5 mi
6:53 AM58 °FPassing clouds.No wind97%29.59 "Hg10 mi
5:53 AM58 °FPassing clouds.No wind93%29.63 "Hg9 mi
4:53 AM57 °FPassing clouds.No wind93%29.64 "Hg10 mi
3:53 AM56 °FPassing clouds.No wind97%29.65 "Hg10 mi
2:53 AM55 °FPassing clouds.No wind96%29.67 "Hg8 mi
1:53 AM55 °FClear.No wind93%29.70 "Hg9 mi
12:53 AM60 °FClear.6 mph90%29.71 "Hg10 mi
11:53 PM
Mon, Oct 12
59 °FClear.6 mph90%29.73 "Hg10 mi
10:53 PM61 °FClear.8 mph87%29.74 "Hg10 mi
9:53 PM59 °FClear.5 mph84%29.74 "Hg10 mi
8:53 PM62 °FClear.5 mph75%29.76 "Hg10 mi
7:53 PM63 °FClear.3 mph73%29.77 "Hg10 mi
Weather by CustomWeather, © 2015

See weather overviewHow to use our weather pages